Time,TemperatureF,DewpointF,PressureIn,WindDirection,WindDirectionDegrees,WindSpeedMPH,WindSpeedGustMPH,Humidity,HourlyPrecipIn,Conditions,Clouds,dailyrainin,SoftwareType,DateUTC
2013-06-15 00:00:00,64.4,51.1,30.27,ENE,62,0.0,0.0,62,-99.99,,,0.00,VWS V14.01,2013-06-15 04:00:00,
2013-06-15 00:30:00,63.1,49.9,30.27,ENE,62,0.0,0.0,62,-99.99,,,0.00,VWS V14.01,2013-06-15 04:30:00,
2013-06-15 01:00:00,62.4,50.5,30.27,ENE,62,0.0,0.0,65,-99.99,,,0.00,VWS V14.01,2013-06-15 05:00:00,
2013-06-15 01:30:00,62.6,51.5,30.27,NE,52,0.0,0.0,67,-99.99,,,0.00,VWS V14.01,2013-06-15 05:30:00,
2013-06-15 02:30:00,63.1,52.0,30.27,NE,41,0.0,2.7,67,-99.99,,,0.00,VWS V14.01,2013-06-15 06:30:00,
2013-06-15 03:00:00,63.3,51.4,30.27,NE,53,0.0,0.0,65,-99.99,,,0.00,VWS V14.01,2013-06-15 07:00:00,
2013-06-15 03:30:00,63.1,49.9,30.27,NE,35,0.0,0.0,62,-99.99,,,0.00,VWS V14.01,2013-06-15 07:30:00,
2013-06-15 04:00:00,62.6,49.0,30.27,NNE,33,0.0,0.0,61,-99.99,,,0.00,VWS V14.01,2013-06-15 08:00:00,
2013-06-15 04:30:00,62.6,49.0,30.27,NE,42,0.0,2.7,61,-99.99,,,0.00,VWS V14.01,2013-06-15 08:30:00,
2013-06-15 05:00:00,62.8,48.7,30.30,NE,50,0.0,6.3,60,-99.99,,,0.00,VWS V14.01,2013-06-15 09:00:00,
2013-06-15 05:30:00,62.8,47.8,30.30,NE,40,0.0,3.1,58,-99.99,,,0.00,VWS V14.01,2013-06-15 09:30:00,
2013-06-15 06:00:00,63.0,48.0,30.30,NNE,15,0.0,0.0,58,-99.99,,,0.00,VWS V14.01,2013-06-15 10:00:00,
2013-06-15 06:30:00,62.2,47.8,30.30,NNE,28,0.0,0.0,59,-99.99,,,0.00,VWS V14.01,2013-06-15 10:30:00,
2013-06-15 07:00:00,62.2,48.2,30.33,NNE,31,0.0,3.6,60,-99.99,,,0.00,VWS V14.01,2013-06-15 11:00:00,
2013-06-15 07:30:00,62.8,47.3,30.33,WSW,251,0.0,4.9,57,-99.99,,,0.00,VWS V14.01,2013-06-15 11:30:00,
2013-06-15 08:00:00,63.3,46.9,30.33,NE,47,0.0,6.3,55,-99.99,,,0.00,VWS V14.01,2013-06-15 12:00:00,
2013-06-15 08:30:00,64.0,47.6,30.33,SE,137,0.0,7.8,55,-99.99,,,0.00,VWS V14.01,2013-06-15 12:30:00,
2013-06-15 09:00:00,65.5,47.4,30.33,NE,36,0.0,6.9,52,-99.99,,,0.00,VWS V14.01,2013-06-15 13:00:00,
2013-06-15 09:30:00,66.7,48.1,30.36,SSE,149,0.0,5.8,51,-99.99,,,0.00,VWS V14.01,2013-06-15 13:30:00,
2013-06-15 10:00:00,67.6,48.4,30.36,NE,41,0.0,6.9,50,-99.99,,,0.00,VWS V14.01,2013-06-15 14:00:00,
2013-06-15 10:30:00,68.9,49.0,30.36,ENE,69,0.0,6.7,49,-99.99,,,0.00,VWS V14.01,2013-06-15 14:30:00,
2013-06-15 11:00:00,70.5,49.3,30.36,NE,50,0.0,5.8,47,-99.99,,,0.00,VWS V14.01,2013-06-15 15:00:00,
2013-06-15 11:30:00,72.3,52.7,30.36,NNE,12,0.0,4.5,50,-99.99,,,0.00,VWS V14.01,2013-06-15 15:30:00,
2013-06-15 12:00:00,74.3,53.4,30.36,NE,46,0.0,4.5,48,-99.99,,,0.00,VWS V14.01,2013-06-15 16:00:00,
2013-06-15 12:30:00,76.5,54.2,30.36,NNE,13,0.0,0.0,46,-99.99,,,0.00,VWS V14.01,2013-06-15 16:30:00,
2013-06-15 13:00:00,77.9,53.0,30.36,SSW,202,0.0,2.7,42,-99.99,,,0.00,VWS V14.01,2013-06-15 17:00:00,
2013-06-15 13:30:00,78.1,51.8,30.36,SW,226,0.0,0.0,40,-99.99,,,0.00,VWS V14.01,2013-06-15 17:30:00,
2013-06-15 14:00:00,78.8,52.5,30.33,SW,228,0.0,2.7,40,-99.99,,,0.00,VWS V14.01,2013-06-15 18:00:00,
2013-06-15 14:30:00,78.6,54.9,30.33,SW,225,0.0,0.0,44,-99.99,,,0.00,VWS V14.01,2013-06-15 18:30:00,
2013-06-15 15:00:00,83.1,52.7,30.33,WSW,241,0.0,4.9,35,-99.99,,,0.00,VWS V14.01,2013-06-15 19:00:00,
2013-06-15 15:30:00,84.4,51.3,30.33,SSW,203,0.0,3.6,32,-99.99,,,0.00,VWS V14.01,2013-06-15 19:30:00,
2013-06-15 16:00:00,81.9,54.5,30.33,SW,220,0.0,4.0,39,-99.99,,,0.00,VWS V14.01,2013-06-15 20:00:00,
2013-06-15 16:30:00,81.9,51.5,30.33,SSW,212,0.0,4.5,35,-99.99,,,0.00,VWS V14.01,2013-06-15 20:30:00,
2013-06-15 17:00:00,86.2,53.7,30.33,SW,219,0.0,0.0,33,-99.99,,,0.00,VWS V14.01,2013-06-15 21:00:00,
2013-06-15 17:30:00,87.8,52.5,30.30,SW,225,0.0,2.7,30,-99.99,,,0.00,VWS V14.01,2013-06-15 21:30:00,
2013-06-15 18:00:00,87.6,52.4,30.30,WSW,253,0.0,3.6,30,-99.99,,,0.00,VWS V14.01,2013-06-15 22:00:00,
2013-06-15 18:30:00,86.2,51.1,30.30,SW,228,0.0,3.6,30,-99.99,,,0.00,VWS V14.01,2013-06-15 22:30:00,
2013-06-15 19:00:00,81.9,52.3,30.30,SW,222,0.0,0.0,36,-99.99,,,0.00,VWS V14.01,2013-06-15 23:00:00,
2013-06-15 19:30:00,78.8,52.5,30.30,SW,217,0.0,0.0,40,-99.99,,,0.00,VWS V14.01,2013-06-15 23:30:00,
2013-06-15 20:00:00,76.5,55.3,30.30,SW,219,0.0,0.0,48,-99.99,,,0.00,VWS V14.01,2013-06-16 00:00:00,
2013-06-15 20:30:00,74.7,55.9,30.30,SW,219,0.0,0.0,52,-99.99,,,0.00,VWS V14.01,2013-06-16 00:30:00,
2013-06-15 21:00:00,72.1,56.6,30.30,SW,222,0.0,0.0,58,-99.99,,,0.00,VWS V14.01,2013-06-16 01:00:00,
2013-06-15 21:30:00,71.1,56.0,30.30,SW,222,0.0,0.0,59,-99.99,,,0.00,VWS V14.01,2013-06-16 01:30:00,
2013-06-15 22:00:00,69.3,55.2,30.33,SW,226,0.0,0.0,61,-99.99,,,0.00,VWS V14.01,2013-06-16 02:00:00,
2013-06-15 22:30:00,68.2,56.0,30.33,SW,222,0.0,0.0,65,-99.99,,,0.00,VWS V14.01,2013-06-16 02:30:00,
2013-06-15 23:00:00,69.4,55.4,30.33,SW,214,0.0,0.0,61,-99.99,,,0.00,VWS V14.01,2013-06-16 03:00:00,
2013-06-15 23:30:00,69.3,52.9,30.33,SE,145,0.0,2.7,56,-99.99,,,0.00,VWS V14.01,2013-06-16 03:30:00,